{"data":{"norad_id":67117,"intl_designator":"2025-299R","name":"STARLINK-35674","alt_names":[],"object_type":"PAYLOAD","status":"ACTIVE","operator":null,"country":"US","launch_date":"2025-12-15","launch_site_code":"AFETR","launch_vehicle":null,"mission":null,"orbit_class":"UNKNOWN","rcs_meters":null,"size_class":null,"mass_kg":null,"dimensions":null,"purposes":["comms"],"wikipedia_slug":null,"has_3d_model":false,"image_url":null,"decayed_at":null,"tle_current":{"epoch":"2026-05-24T21:52:07.148640Z","epoch_age_seconds":93421,"freshness":"FRESH","line1":"1 67117U 25299R   26144.91119385  .00016151  00000+0  59488-3 0  9993","line2":"2 67117  42.9997  98.5061 0000667 252.3266 107.7513 15.27594875 24775","mean_motion":15.27594875,"eccentricity":6.67e-5,"inclination_deg":42.9997,"raan_deg":98.5061,"arg_perigee_deg":252.3266,"mean_anomaly_deg":107.7513,"bstar":0.00059488,"rev_number":2477,"period_min":94.265830788415,"perigee_km":482.5469171581,"apogee_km":483.46219344157,"semimajor_km":6861.1415552998,"source":"CELESTRAK","updated_at":"2026-05-25T13:38:21.475966Z"}}}